Location: Berlin
(52.5170°N, 13.4000°E)
Time: 09:48:21
(UTC+02:00)

ISS - Pass Details

Date: 21 July 2018
Orbit: 402 x 408 km, 51.6° (Epoch: 19 July)

Event Time Altitude Azimuth Distance (km) Brightness Sun altitude
Rises 02:58:14 0° 281° (W) 2,331 -0.1 -13.5°
Reaches altitude 10° 03:00:23 10° 274° (W) 1,470 -1.2 -13.3°
Maximum altitude 03:03:30 40° 203° (SSW) 613 -3.4 -13.1°
Drops below altitude 10° 03:06:37 10° 132° (SE) 1,467 -1.1 -12.9°
Sets 03:08:46 0° 124° (SE) 2,326 0.0 -12.7°
